GW1195 Weather Reports


Display with metric or nautical units.
time (UTC)temp
F
wind
direction
speed
MPH
gust
MPH
rain 1hr
in
rain 24hr
in
rain mn
in
humidity
%
barometer
mb
20260831074550 54 0 0.0 1.0 0.00 0.00 0.00 94 1014.6
20260831073049 54 0 0.0 1.0 0.00 0.00 0.00 94 1014.7
20260831071556 54 0 0.0 1.0 0.00 0.00 0.00 93 1014.8
20260831070053 54 0 0.0 1.0 0.00 0.00 0.00 93 1015.0
20260831064548 55 0 1.0 3.0 0.00 0.00 0.00 92 1015.1
20260831063055 56 0 0.0 0.0 0.00 0.00 0.00 93 1015.2
20260831061550 56 0 0.0 1.0 0.00 0.00 0.00 93 1015.4
20260831060054 56 0 0.0 1.0 0.00 0.00 0.00 92 1015.5
20260831054543 56 0 0.0 0.0 0.00 0.00 0.00 91 1015.7
20260831053054 57 0 0.0 0.0 0.00 0.00 0.00 91 1015.9
20260831051548 57 0 0.0 0.0 0.00 0.00 0.00 89 1016.2
20260831050058 58 0 0.0 1.0 0.00 0.00 0.00 88 1016.2
20260831044602 58 0 0.0 1.0 0.00 0.00 0.00 87 1016.4
20260831043052 60 343 0.0 3.0 0.00 0.00 0.00 87 1016.3
20260831041602 60 0 0.0 3.0 0.00 0.00 0.00 87 1016.3
20260831040107 60 0 1.0 5.0 0.00 0.00 0.00 86 1016.3
20260831034555 61 355 2.0 8.0 0.00 0.00 0.00 85 1016.2
20260831033048 61 290 2.0 10.0 0.00 0.00 0.00 84 1016.2
20260831031553 61 265 2.0 6.0 0.00 0.00 0.00 84 1016.1
20260831030051 62 255 2.0 9.0 0.00 0.00 0.00 83 1016.1
20260831024548 62 277 3.0 11.0 0.00 0.00 0.00 82 1016.3
20260831023041 63 273 4.0 13.0 0.00 0.00 0.00 81 1016.3
20260831021553 64 337 5.0 12.0 0.00 0.00 0.00 78 1016.4
20260831020049 65 272 5.0 13.0 0.00 0.00 0.00 76 1016.5
20260831014554 65 300 3.0 13.0 0.00 0.00 0.00 77 1016.7
20260831013052 65 310 6.0 14.0 0.00 0.00 0.00 77 1016.8
20260831011550 65 307 5.0 15.0 0.00 0.00 0.00 76 1017.1
20260831010046 65 292 6.0 17.0 0.00 0.00 0.00 77 1017.3
20260831004555 65 276 8.0 16.0 0.00 0.00 0.00 75 1017.6
20260831003056 65 244 7.0 15.0 0.00 0.00 0.00 76 1017.8
20260831001548 65 321 8.0 18.0 0.00 0.00 0.00 77 1017.8
20260831000059 66 304 6.0 19.0 0.00 0.00 0.00 76 1018.2
20260830234602 66 286 7.0 17.0 0.00 0.00 0.00 75 1018.1
20260830233048 66 237 8.0 17.0 0.00 0.00 0.00 74 1018.1
20260830231544 66 286 9.0 19.0 0.00 0.00 0.00 73 1018.5
20260830230053 66 280 7.0 17.0 0.00 0.00 0.00 73 1018.7
20260830224555 66 9 7.0 15.0 0.00 0.00 0.00 72 1018.9
20260830223049 66 300 7.0 16.0 0.00 0.00 0.00 70 1019.1
20260830221554 66 265 9.0 18.0 0.00 0.00 0.00 71 1019.2
20260830220058 67 313 7.0 16.0 0.00 0.00 0.00 70 1019.3
20260830214603 67 46 7.0 15.0 0.00 0.00 0.00 71 1019.4
20260830213058 67 308 7.0 16.0 0.00 0.00 0.00 70 1019.6
20260830211557 68 321 5.0 13.0 0.00 0.00 0.00 69 1019.6
20260830210052 67 317 7.0 13.0 0.00 0.00 0.00 68 1019.7
20260830204543 67 269 6.0 13.0 0.00 0.00 0.00 69 1019.7
20260830203055 67 340 8.0 16.0 0.00 0.00 0.00 68 1019.9
20260830201554 68 275 5.0 14.0 0.00 0.00 0.00 69 1020.0
20260830200059 68 9 3.0 12.0 0.00 0.00 0.00 69 1020.0
20260830194550 68 348 5.0 12.0 0.00 0.00 0.00 67 1020.1
20260830193125 68 292 3.0 12.0 0.00 0.00 0.00 67 1020.3
20260830191549 67 301 2.0 11.0 0.00 0.00 0.00 68 1020.6
20260830190058 67 272 4.0 10.0 0.00 0.00 0.00 68 1020.8
20260830184553 68 332 2.0 5.0 0.00 0.00 0.00 65 1020.8
20260830183053 69 240 0.0 4.0 0.00 0.00 0.00 63 1020.8
20260830181600 67 193 2.0 6.0 0.00 0.00 0.00 62 1020.8
20260830180058 67 5 1.0 5.0 0.00 0.00 0.00 66 1020.8
20260830174607 67 352 0.0 3.0 0.00 0.00 0.00 68 1020.9
20260830173108 64 0 0.0 2.0 0.00 0.00 0.00 72 1021.0
20260830171602 62 295 0.0 2.0 0.00 0.00 0.00 76 1021.0
20260830170054 60 198 0.0 2.0 0.00 0.00 0.00 81 1021.1
20260830164550 58 178 0.0 4.0 0.00 0.00 0.00 87 1021.0
20260830163049 57 0 0.0 2.0 0.00 0.00 0.00 93 1021.0
20260830161555 55 0 0.0 2.0 0.00 0.00 0.00 97 1021.1
20260830160056 54 0 0.0 2.0 0.00 0.00 0.00 97 1021.2
20260830154550 53 0 0.0 2.0 0.00 0.10 0.00 98 1021.3
20260830153049 51 0 0.0 1.0 0.00 0.10 0.00 98 1021.4
20260830151555 49 0 0.0 0.0 0.00 0.10 0.00 97 1021.3
20260830150056 48 0 0.0 1.0 0.00 0.10 0.00 97 1021.4
20260830144557 47 0 0.0 0.0 0.00 0.10 0.00 97 1021.4
20260830143059 46 0 0.0 2.0 0.00 0.10 0.00 97 1021.3
20260830141552 46 0 0.0 3.0 0.00 0.10 0.00 97 1021.3
20260830140048 45 0 0.0 1.0 0.00 0.10 0.00 96 1021.2
20260830134554 45 0 0.0 1.0 0.00 0.11 0.00 96 1021.3
20260830133058 45 242 0.0 1.0 0.00 0.11 0.00 96 1021.3
20260830131549 45 0 0.0 1.0 0.00 0.11 0.00 96 1021.3
20260830130056 45 0 0.0 1.0 0.00 0.11 0.00 96 1021.4
20260830124553 45 263 0.0 2.0 0.00 0.11 0.00 96 1021.3
20260830123049 46 0 0.0 1.0 0.00 0.11 0.00 96 1021.2
20260830121600 46 0 0.0 0.0 0.00 0.11 0.00 96 1021.3
20260830120055 46 0 0.0 0.0 0.00 0.11 0.00 96 1021.1
20260830114608 46 0 0.0 0.0 0.00 0.11 0.00 96 1021.2
20260830113046 46 0 0.0 1.0 0.00 0.11 0.00 96 1021.1
20260830111553 47 0 0.0 1.0 0.00 0.11 0.00 95 1021.2
20260830110055 47 0 0.0 3.0 0.00 0.11 0.00 95 1021.2
20260830104611 47 184 0.0 2.0 0.00 0.28 0.00 95 1021.0
20260830103105 48 0 0.0 0.0 0.00 0.28 0.00 95 1021.1
20260830101554 48 0 0.0 0.0 0.00 0.28 0.00 95 1021.2
20260830100051 49 0 0.0 0.0 0.00 0.28 0.00 95 1021.1
20260830094546 49 0 0.0 0.0 0.00 0.28 0.00 95 1020.9
20260830093101 50 0 0.0 0.0 0.00 0.28 0.00 95 1020.9
20260830091602 50 0 0.0 0.0 0.00 0.28 0.00 95 1021.1
20260830090042 50 0 0.0 0.0 0.00 0.28 0.00 94 1020.9
20260830084552 51 0 0.0 0.0 0.00 0.28 0.00 94 1021.0
20260830083050 51 0 0.0 0.0 0.00 0.28 0.00 94 1021.1
20260830081548 52 0 0.0 0.0 0.00 0.28 0.00 94 1021.1
20260830080054 52 0 0.0 0.0 0.00 0.28 0.00 94 1021.1